Wind_Speed
15 16 16 17 19 20 21 23 23 23 22 19 18 18 21 23 26 26 26 29 25 17 11 10 9 8 5 7 5 1 2 1 4 12 18 24 21 18 15 16 20 20 20 18 22 29 25
14 15 16 18 19 20 21 23 25 25 24 20 17 16 18 20 24 27 22 28 32 23 15 12 10 10 6 3 4 2 2 4 6 13 20 20 16 17 12 17 18 19 19 18 23 26 28
13 14 16 17 18 20 21 23 24 25 25 23 18 15 15 16 21 27 27 24 25 35 31 18 10 14 9 3 3 5 2 4 7 15 15 17 16 21 14 13 16 22 19 19 19 20 22
13 14 16 17 18 19 21 23 25 25 26 24 20 14 13 12 16 21 24 24 28 26 34 35 16 10 8 3 5 2 3 7 9 7 9 10 16 12 18 11 17 21 16 17 21 21 21
12 14 15 17 18 19 20 22 24 25 25 24 22 16 12 10 12 16 19 22 25 28 25 34 24 14 6 6 5 5 4 8 8 7 6 12 20 17 17 18 18 22 21 24 16 21 21
12 13 14 16 17 19 20 21 23 24 25 25 22 19 14 11 10 13 16 20 22 26 28 25 37 12 11 8 5 4 1 6 3 6 7 13 19 17 14 20 22 26 24 20 15 23 21
12 12 13 15 17 18 20 21 22 24 24 24 23 21 16 12 10 11 14 16 20 21 25 29 27 33 25 9 5 5 5 9 5 8 12 15 13 18 16 16 7 19 22 15 14 21 17
12 12 13 14 16 18 19 21 22 23 24 24 24 22 19 14 11 11 13 14 11 12 22 22 24 20 26 18 9 7 8 2 3 15 12 16 11 14 18 14 5 17 19 16 12 21 17
13 13 12 13 15 17 19 21 22 23 24 24 23 23 21 17 12 10 11 11 8 6 12 24 19 17 14 17 14 13 8 12 19 14 3 7 10 12 14 14 6 9 17 15 15 23 14
13 13 13 13 15 16 19 20 21 22 24 24 23 23 21 19 15 11 8 8 7 3 4 12 17 19 14 10 19 18 15 12 10 6 10 10 12 11 10 10 10 10 14 15 17 19 12
13 14 13 14 15 17 19 20 21 22 23 24 23 23 22 20 18 13 8 7 5 5 3 10 14 14 12 18 16 11 9 6 6 8 4 11 8 9 6 12 7 11 13 12 16 11 14
12 13 14 13 14 15 18 20 20 21 22 23 23 23 22 20 18 14 10 6 5 4 4 6 10 10 8 5 8 11 12 11 5 5 4 10 7 2 6 7 11 15 12 12 10 8 3
13 13 14 14 13 15 16 19 20 21 21 22 22 21 21 19 17 14 11 6 5 6 3 5 7 8 9 4 3 6 10 10 4 3 6 3 3 3 2 8 14 14 9 5 4 2 2
15 14 14 14 14 14 16 18 19 21 21 21 21 19 20 19 17 14 10 9 6 4 4 4 7 7 8 5 5 3 5 7 9 8 5 2 1 5 4 8 6 9 2 3 3 5 5
16 15 14 14 13 14 16 17 18 18 20 21 19 17 18 18 16 14 9 9 5 3 6 5 5 4 6 7 4 6 6 5 3 5 3 3 1 4 6 5 7 6 2 1 3 4 3
17 15 15 14 14 13 15 17 17 17 18 19 18 14 17 16 15 13 13 10 5 6 5 8 3 5 4 5 4 2 3 2 5 5 4 3 2 7 8 6 5 6 5 1 2 2 3
18 17 16 14 13 13 14 15 17 17 17 18 17 14 13 12 12 13 13 11 9 7 6 6 6 5 6 4 5 3 2 2 5 5 6 5 3 1 4 3 2 1 1 1 1 1 2
18 17 17 16 14 13 14 15 16 16 16 17 16 14 12 11 10 10 12 12 10 9 8 6 5 6 6 6 6 3 2 0 1 4 4 2 5 3 7 4 5 5 4 3 2 1 1
20 17 18 18 16 13 14 16 16 15 15 15 15 14 11 10 8 10 9 9 9 9 9 8 6 6 6 7 3 5 3 2 1 2 2 2 2 2 1 5 8 7 8 8 6 5 4
23 20 19 19 18 16 15 17 16 17 17 17 17 12 13 10 9 7 6 6 6 6 6 6 6 7 6 7 5 5 4 3 2 2 2 1 3 3 3 2 3 4 7 11 10 4 3
24 22 20 20 21 20 19 19 19 20 20 21 19 14 13 12 12 9 7 5 4 4 4 4 5 5 5 5 3 5 5 4 4 5 5 4 4 6 8 9 10 12 12 12 15 15 9
25 24 23 23 23 22 22 22 23 24 25 25 21 17 15 14 12 9 9 6 5 5 4 3 5 5 4 2 1 4 3 3 4 4 4 5 6 10 12 11 14 18 18 20 21 21 24
26 28 27 28 27 27 27 29 30 29 29 26 21 18 16 15 13 12 11 8 8 8 6 6 7 7 8 8 9 8 8 8 9 9 9 8 5 5 4 7 11 16 16 20 23 23 20
36 37 36 34 33 32 32 34 33 29 23 19 17 15 13 16 15 14 12 12 11 10 10 9 9 9 9 10 11 12 12 11 12 12 11 10 7 7 7 7 3 4 5 7 8 10 12
42 39 38 38 39 35 33 27 19 16 16 13 14 13 12 13 13 15 14 14 13 12 11 11 11 12 12 11 13 10 11 9 6 9 8 8 8 5 4 5 13 19 15 17 16 14 12
38 31 29 28 29 28 25 21 19 15 16 14 12 11 11 12 12 11 11 11 12 14 16 15 13 12 11 13 9 3 3 5 6 6 5 6 8 7 5 4 4 9 11 10 10 13 15
36 34 32 30 30 26 24 23 20 18 18 18 16 14 13 13 12 12 14 14 13 12 14 15 15 15 14 14 12 7 7 12 5 5 8 8 8 13 12 9 10 20 18 15 7 8 9
38 34 32 31 29 29 29 27 24 21 21 21 20 21 20 20 18 18 18 18 18 17 17 18 16 17 15 13 9 10 9 10 10 14 12 8 6 8 8 8 10 12 11 11 14 16 16
31 32 32 31 30 29 30 31 31 28 27 26 21 21 23 25 21 18 16 15 16 16 17 19 20 18 11 11 10 8 11 11 14 11 16 16 19 16 14 11 19 25 27 24 23 26 25
Wind_Direction
42 41 40 34 29 26 24 22 18 18 17 12 11 7 12 17 20 22 32 33 23 21 18 10 4 356 344 360 338 279 236 268 200 173 181 186 207 180 183 193 187 190 193 196 185 190 191
37 33 31 29 25 23 22 21 18 17 18 14 10 8 14 21 25 26 33 31 30 27 27 25 28 18 355 332 323 190 181 219 196 173 182 192 196 171 163 181 186 171 193 185 185 190 198
33 29 27 25 23 21 19 21 20 18 17 14 11 6 14 25 30 30 39 41 34 38 37 24 360 355 10 314 139 154 162 171 170 181 190 209 201 140 142 165 173 179 184 187 194 187 194
28 27 23 21 20 19 17 18 19 18 18 15 10 6 6 19 26 32 36 37 36 31 33 27 30 21 23 52 126 79 136 155 150 162 218 226 170 153 148 174 166 172 178 176 197 194 195
23 21 19 18 16 17 16 14 17 16 16 16 11 3 359 4 6 15 27 31 28 30 25 33 27 30 53 54 57 46 108 164 169 143 77 210 151 153 151 156 158 175 178 190 196 197 195
22 16 15 14 13 13 15 15 14 15 14 16 14 6 358 352 349 0 12 20 22 29 28 34 33 34 42 67 70 148 179 122 154 179 136 127 136 157 160 170 175 177 182 186 183 198 190
20 15 10 9 10 8 10 12 13 12 12 14 16 11 3 351 343 344 355 359 11 12 35 40 41 41 38 61 72 125 73 150 156 166 168 159 149 171 171 176 238 177 186 171 166 191 176
13 11 8 6 6 4 5 8 10 12 10 12 16 15 9 2 352 348 339 340 351 15 25 32 36 37 35 50 51 64 93 68 174 115 120 151 150 182 183 176 138 170 178 166 182 166 162
4 3 4 2 3 1 2 3 6 9 10 10 14 17 16 10 5 359 356 355 358 357 24 23 28 29 32 36 69 60 67 94 117 90 143 102 128 158 176 175 139 178 170 167 180 170 154
351 353 352 355 356 358 360 2 3 6 9 10 11 17 18 15 13 8 4 359 11 8 51 22 16 22 29 30 69 66 102 93 105 97 92 113 110 104 159 173 174 167 140 169 179 166 165
339 340 345 345 350 354 357 360 360 4 8 9 11 15 19 17 16 19 16 18 25 42 36 1 10 22 53 72 66 61 60 100 107 84 84 139 134 84 109 175 169 139 167 165 164 173 153
328 331 334 338 341 349 353 355 357 1 4 8 11 13 17 18 18 19 25 41 48 74 42 12 19 24 41 19 44 53 63 73 125 75 155 164 174 105 71 126 143 141 151 151 148 159 146
315 322 325 329 333 338 348 351 351 357 2 5 10 12 17 20 20 23 27 44 50 51 351 6 17 29 39 25 33 37 49 56 84 92 118 149 202 202 140 93 126 144 153 153 141 190 103
304 311 316 319 324 328 340 344 347 351 356 2 7 13 15 22 25 25 38 54 61 42 41 12 23 38 33 27 34 37 65 58 82 86 86 92 149 181 175 111 149 164 132 291 146 175 127
294 301 305 310 318 320 328 336 339 344 349 356 3 14 14 21 25 31 36 52 41 18 16 17 40 46 13 30 49 54 88 107 66 41 93 110 194 193 164 175 162 198 272 14 82 97 165
286 292 295 299 306 313 320 328 332 336 339 347 357 6 16 20 25 35 44 66 72 55 48 48 18 38 28 34 46 50 17 107 39 66 109 113 106 173 174 190 198 204 212 326 65 162 148
281 284 286 289 296 307 313 321 328 330 335 341 349 352 13 18 23 33 49 57 51 48 46 44 41 18 28 33 51 71 66 169 15 53 100 123 82 215 186 219 200 238 259 281 64 33 318
277 280 282 283 289 300 307 313 321 324 329 337 343 345 353 6 14 28 45 50 50 43 42 45 40 42 39 36 36 47 52 170 31 44 70 76 128 166 214 231 237 236 236 215 330 29 354
271 272 278 280 282 289 298 307 315 325 328 333 340 335 336 352 10 19 31 40 48 54 52 46 43 36 27 38 50 50 53 74 20 22 46 73 121 158 291 265 246 243 243 243 243 262 231
270 271 273 279 282 288 293 299 307 312 322 326 329 329 321 324 345 356 8 17 34 41 53 69 59 46 44 30 32 15 21 21 13 20 16 327 211 222 320 259 287 246 256 240 222 228 252
265 264 267 270 281 288 291 294 301 308 317 318 314 309 305 300 318 322 335 339 357 8 11 27 36 47 45 38 35 11 359 349 334 329 326 312 288 284 272 265 265 262 262 255 248 246 241
264 268 270 272 276 282 288 291 294 302 311 317 303 293 291 292 296 298 305 311 313 330 330 336 353 355 1 9 355 308 333 327 310 314 308 303 294 310 304 277 273 273 264 258 256 248 252
266 270 272 273 276 280 286 292 295 300 302 304 294 275 281 283 284 289 289 288 295 304 306 304 321 323 326 330 329 323 312 294 278 275 281 282 276 295 258 291 298 288 271 254 257 261 265
272 272 272 275 276 278 282 286 293 291 292 291 279 269 269 275 279 277 279 281 285 289 289 294 299 302 307 311 312 310 304 298 292 288 275 260 261 264 276 299 237 276 273 235 244 258 257
270 262 263 272 273 275 274 281 282 281 294 286 276 266 262 265 271 273 276 279 281 282 283 286 291 296 298 303 316 321 311 303 296 289 271 259 247 268 273 266 288 287 273 266 273 272 266
263 257 259 268 269 270 266 268 270 270 278 277 273 272 270 270 269 272 271 269 270 277 281 282 283 284 287 294 298 274 289 291 304 303 282 269 243 229 270 269 265 273 288 284 270 271 259
254 265 268 261 264 266 270 266 265 266 266 265 263 267 273 276 272 267 268 271 273 274 274 282 281 279 278 279 266 252 251 260 252 252 280 277 265 251 251 258 264 270 273 272 271 280 272
247 243 245 248 254 256 257 264 259 271 261 263 265 264 265 267 270 272 271 271 270 270 270 273 280 279 273 259 254 256 237 249 257 251 268 259 253 248 233 241 266 272 272 261 271 272 272
231 232 235 238 240 247 254 256 263 271 264 259 262 264 269 269 265 263 261 261 255 254 260 260 262 265 259 254 248 250 250 252 258 267 266 257 257 255 241 254 276 292 296 288 279 275 270
Height
3155 3153 3151 3149 3146 3143 3139 3135 3131 3126 3121 3117 3113 3109 3105 3100 3095 3090 3084 3078 3073 3068 3064 3062 3061 3059 3056 3055 3055 3054 3053 3054 3054 3054 3058 3062 3063 3065 3072 3077 3081 3087 3092 3094 3099 3104 3108
3156 3155 3152 3150 3147 3144 3140 3136 3131 3126 3121 3117 3113 3109 3106 3102 3097 3092 3086 3081 3076 3070 3066 3063 3061 3059 3057 3057 3055 3054 3055 3055 3055 3057 3058 3060 3061 3065 3069 3078 3081 3086 3092 3095 3099 3103 3107
3157 3156 3153 3150 3147 3145 3141 3136 3132 3127 3122 3117 3113 3109 3106 3103 3099 3094 3089 3084 3080 3075 3069 3065 3061 3059 3056 3057 3055 3055 3055 3055 3057 3059 3060 3061 3062 3065 3073 3077 3082 3087 3091 3095 3098 3101 3105
3158 3156 3154 3151 3148 3145 3141 3137 3132 3127 3123 3118 3113 3109 3106 3104 3101 3096 3093 3088 3083 3078 3073 3065 3061 3060 3059 3058 3057 3057 3056 3057 3058 3061 3062 3060 3066 3068 3071 3077 3082 3087 3092 3095 3097 3099 3104
3159 3157 3154 3152 3149 3145 3142 3137 3133 3128 3124 3119 3114 3110 3107 3104 3102 3098 3095 3091 3086 3082 3076 3070 3065 3062 3062 3062 3060 3060 3059 3059 3060 3061 3062 3063 3067 3071 3075 3078 3084 3088 3089 3093 3095 3098 3102
3159 3157 3155 3152 3150 3146 3142 3138 3134 3129 3124 3120 3115 3110 3107 3104 3102 3099 3097 3094 3090 3085 3081 3074 3071 3068 3066 3064 3063 3062 3061 3062 3063 3064 3065 3067 3069 3074 3077 3080 3079 3082 3087 3092 3094 3098 3102
3159 3157 3155 3153 3150 3147 3143 3138 3135 3130 3125 3120 3116 3111 3107 3104 3102 3099 3097 3095 3094 3089 3084 3079 3076 3071 3069 3067 3065 3065 3064 3065 3065 3066 3067 3070 3073 3075 3078 3081 3082 3085 3087 3091 3093 3097 3102
3158 3157 3155 3153 3151 3148 3143 3139 3135 3131 3126 3121 3117 3112 3108 3104 3102 3099 3097 3096 3094 3093 3087 3083 3080 3076 3074 3071 3069 3067 3068 3068 3067 3066 3069 3074 3073 3076 3078 3081 3082 3085 3088 3090 3096 3099 3103
3158 3156 3154 3152 3150 3148 3144 3140 3136 3131 3127 3123 3117 3113 3108 3104 3101 3099 3097 3096 3093 3092 3091 3087 3084 3080 3078 3075 3073 3072 3071 3069 3070 3071 3073 3073 3077 3079 3081 3083 3085 3087 3089 3091 3097 3099 3102
3158 3155 3153 3151 3149 3147 3144 3140 3136 3132 3128 3124 3119 3114 3109 3105 3102 3099 3097 3096 3094 3093 3093 3094 3089 3086 3083 3079 3078 3077 3076 3076 3075 3077 3076 3078 3081 3081 3083 3086 3086 3090 3086 3094 3098 3101 3102
3157 3155 3152 3150 3148 3146 3144 3140 3137 3132 3129 3124 3120 3115 3110 3106 3103 3100 3098 3095 3094 3094 3095 3097 3093 3090 3086 3084 3085 3084 3082 3081 3080 3080 3081 3083 3082 3083 3085 3085 3087 3086 3092 3096 3099 3100 3101
3156 3154 3152 3149 3148 3145 3143 3140 3137 3133 3129 3125 3121 3117 3112 3108 3104 3101 3098 3096 3095 3097 3098 3098 3096 3093 3091 3088 3086 3085 3084 3084 3083 3083 3083 3084 3085 3086 3087 3087 3087 3090 3095 3097 3100 3101 3103
3154 3152 3150 3148 3146 3144 3142 3140 3137 3133 3129 3126 3122 3118 3113 3109 3106 3102 3099 3098 3098 3097 3101 3100 3097 3094 3093 3091 3089 3088 3087 3087 3087 3088 3087 3087 3088 3089 3091 3089 3090 3095 3098 3099 3101 3101 3099
3152 3151 3149 3147 3145 3144 3142 3140 3137 3133 3130 3126 3122 3118 3115 3111 3108 3104 3101 3100 3098 3101 3100 3099 3097 3095 3095 3093 3092 3091 3090 3091 3090 3089 3090 3091 3093 3091 3091 3091 3094 3096 3097 3097 3095 3096 3098
3150 3148 3147 3145 3144 3143 3141 3139 3136 3133 3130 3127 3123 3119 3117 3114 3110 3107 3105 3103 3104 3102 3102 3099 3098 3098 3097 3095 3094 3093 3091 3091 3091 3090 3092 3092 3092 3092 3092 3094 3097 3096 3098 3097 3096 3096 3097
3146 3146 3144 3143 3142 3141 3140 3138 3136 3133 3130 3126 3124 3120 3117 3115 3112 3109 3108 3105 3105 3104 3102 3101 3101 3099 3098 3096 3096 3095 3094 3093 3092 3091 3091 3093 3094 3093 3094 3096 3097 3097 3098 3098 3096 3097 3095
3142 3142 3142 3140 3139 3138 3137 3137 3135 3132 3129 3126 3124 3121 3118 3116 3114 3111 3109 3107 3107 3106 3104 3103 3102 3101 3099 3098 3096 3095 3096 3096 3094 3093 3092 3093 3095 3097 3097 3096 3096 3098 3098 3098 3098 3097 3094
3138 3138 3139 3138 3137 3135 3135 3134 3133 3131 3128 3126 3123 3122 3120 3117 3117 3112 3110 3108 3108 3107 3106 3105 3103 3102 3101 3100 3099 3098 3097 3096 3096 3095 3095 3095 3096 3098 3098 3096 3096 3096 3096 3097 3099 3100 3098
3133 3133 3134 3135 3134 3132 3132 3131 3130 3128 3127 3125 3122 3121 3120 3118 3116 3113 3111 3109 3108 3107 3106 3105 3105 3104 3102 3100 3101 3099 3098 3098 3097 3096 3096 3097 3097 3098 3097 3098 3096 3095 3095 3096 3097 3098 3098
3128 3128 3129 3131 3131 3129 3128 3128 3127 3127 3125 3124 3123 3121 3120 3118 3116 3114 3112 3110 3109 3107 3106 3105 3104 3103 3103 3102 3101 3100 3099 3099 3098 3097 3097 3097 3096 3096 3096 3095 3095 3094 3094 3094 3096 3097 3097
3123 3123 3124 3125 3126 3125 3125 3124 3123 3123 3122 3123 3121 3120 3118 3117 3115 3114 3112 3110 3109 3108 3107 3106 3105 3104 3103 3102 3102 3101 3100 3099 3098 3097 3097 3097 3096 3095 3094 3093 3092 3092 3092 3092 3093 3094 3095
3117 3118 3118 3119 3120 3120 3119 3119 3119 3119 3117 3118 3118 3117 3116 3115 3114 3112 3111 3110 3109 3108 3108 3106 3106 3104 3103 3103 3102 3101 3100 3099 3098 3098 3097 3096 3095 3093 3091 3091 3090 3088 3088 3088 3088 3088 3087
3110 3112 3113 3114 3113 3114 3114 3114 3113 3113 3112 3112 3111 3111 3111 3111 3111 3111 3110 3109 3108 3107 3107 3106 3105 3104 3104 3103 3102 3100 3099 3097 3097 3096 3095 3095 3094 3093 3091 3089 3087 3084 3080 3080 3082 3083 3085
3102 3104 3105 3106 3107 3107 3107 3107 3107 3107 3107 3107 3106 3106 3106 3106 3107 3107 3107 3107 3106 3106 3105 3104 3103 3102 3102 3100 3099 3098 3096 3094 3093 3092 3092 3092 3093 3093 3089 3087 3086 3079 3079 3079 3079 3079 3080
3093 3094 3097 3098 3100 3100 3100 3101 3101 3102 3102 3101 3101 3102 3101 3101 3103 3103 3103 3103 3103 3102 3102 3101 3100 3100 3099 3099 3097 3096 3094 3092 3089 3088 3088 3089 3090 3091 3089 3086 3082 3076 3075 3075 3074 3075 3075
3084 3087 3089 3090 3092 3093 3093 3095 3097 3096 3098 3098 3098 3098 3097 3098 3098 3099 3099 3099 3099 3099 3099 3098 3097 3096 3096 3096 3096 3095 3095 3092 3091 3089 3087 3088 3088 3091 3089 3087 3079 3074 3073 3073 3072 3070 3071
3075 3078 3080 3083 3085 3086 3088 3090 3091 3092 3093 3093 3094 3094 3094 3094 3094 3095 3095 3096 3096 3096 3095 3094 3094 3094 3093 3092 3092 3092 3090 3089 3088 3086 3086 3086 3085 3086 3085 3083 3075 3070 3070 3071 3074 3073 3069
3066 3070 3073 3075 3077 3079 3081 3083 3085 3087 3087 3088 3089 3089 3089 3089 3089 3090 3091 3091 3091 3091 3092 3090 3092 3089 3089 3089 3089 3087 3085 3084 3084 3082 3082 3083 3083 3081 3080 3079 3072 3067 3067 3071 3069 3066 3065
3058 3061 3064 3067 3069 3072 3074 3075 3077 3079 3080 3082 3083 3083 3083 3083 3084 3083 3084 3084 3084 3085 3085 3085 3087 3086 3086 3085 3085 3083 3082 3080 3079 3079 3077 3077 3078 3077 3076 3071 3068 3066 3064 3064 3063 3061 3060